#timestamp,LO_Frequency,Hit,StdDev 
1503702015.8,286046997.8,N,2.3
1503702035.6,286046997.3,N,2.3
1503702055.4,286047003.2,N,2.4
1503702075.3,286047006.3,N,2.7
1503702095.1,286047004.6,N,2.8
1503702096.0,286047004.6,N,2.9
1503702115.8,286047009.2,Y,0.0
1503702135.7,286047010.6,P,5.1
1503702155.5,286047008.4,N,4.4
1503702175.3,286047007.4,N,3.8
1503702195.2,286047005.4,N,3.5
1503702215.0,286047003.6,N,3.3
1503702215.9,286047003.6,N,3.2
1503702235.7,286047004.0,N,3.0
1503702255.6,286047004.4,N,2.9
1503702275.4,286047004.4,N,2.7
1503702295.3,286047003.9,N,2.6
1503702315.1,286047004.3,N,2.5
1503702316.0,286047004.3,N,2.4
1503702335.8,286047001.4,N,2.5
1503702355.7,286047001.3,N,2.6
1503702375.5,286047001.7,N,2.6
1503702395.3,286047001.7,N,2.6
1503702415.2,286047001.7,N,2.6
1503702435.9,286047004.4,N,2.5
1503702455.7,286047002.0,N,2.5
1503702475.6,286047002.0,N,2.5
1503702495.4,286047001.7,N,2.5
1503702515.2,286047001.3,N,2.4
1503702535.1,286047002.2,N,2.4
1503702536.0,286047002.2,N,2.4
1503702555.8,286047002.4,N,2.3
1503702575.6,286047002.2,N,2.3
1503702595.5,286047001.7,N,2.3
1503702615.3,286047002.3,N,2.3
1503702635.1,286047002.0,N,2.2
1503702655.9,286047001.5,N,2.2
1503702675.7,286047002.5,N,1.7
1503702695.5,286047001.6,N,1.5
1503702715.4,286047002.0,N,1.2
1503702735.2,286047002.1,N,1.1
1503702755.0,286047001.5,N,1.1
1503702756.0,286047001.5,N,1.1
1503702775.8,286047002.5,N,1.0
1503702795.6,286047002.0,N,0.9
1503702815.5,286047001.8,N,0.9
1503702835.3,286047001.6,N,0.8
1503702855.1,286047002.2,N,0.7
1503702875.9,286047004.0,Y,0.0
1503702895.7,286047000.1,P,1.0
1503702915.5,286047002.0,N,0.9
1503702935.4,286047001.6,N,0.8
1503702955.2,286047002.4,N,0.8
1503702975.0,286047002.5,Y,0.0
1503702975.9,286047002.5,P,0.4
1503702995.8,286047000.3,N,0.9
1503703015.6,286047000.5,N,0.9
1503703035.4,286047000.4,N,0.9
1503703055.3,286047000.2,N,0.9
1503703075.1,286047002.2,N,0.9
1503703095.9,286046999.7,N,1.0
1503703115.7,286047002.3,N,1.0
1503703135.5,286047002.6,N,1.1
1503703155.4,286047000.1,N,1.1
1503703175.2,286047000.2,N,1.0
1503703195.0,286046999.7,N,1.1
1503703195.9,286046999.7,N,1.1
1503703215.8,286047002.0,N,1.1
1503703235.6,286047001.9,N,1.1
1503703255.4,286047001.6,N,1.1
1503703275.3,286047002.5,N,1.1
1503703295.1,286047001.6,N,1.1
1503703296.0,286047001.6,N,1.0
1503703315.8,286047002.0,N,1.0
1503703335.7,286047002.0,N,1.0
1503703355.5,286047002.0,N,1.0
1503703375.3,286047002.0,N,1.0
1503703395.2,286047004.4,Y,0.0
1503703415.0,286046999.7,P,0.8
1503703415.9,286046999.7,N,0.8
1503703435.7,286047002.2,N,1.1
1503703455.6,286047002.1,N,1.1
1503703475.4,286047002.5,N,1.2
1503703495.2,286047002.3,N,1.1
1503703515.1,286047002.1,N,1.1
1503703516.0,286047002.1,N,1.0
1503703535.8,286047001.8,N,1.0
1503703555.7,286047002.5,N,1.0
1503703575.5,286047002.0,N,0.9
1503703595.3,286047001.5,N,0.9
1503703615.2,286047001.8,N,0.9
1503703635.9,286047001.6,N,0.8
1503703655.7,286047001.4,N,0.8
1503703675.6,286047001.3,N,0.8
1503703695.4,286047004.0,Y,0.0
1503703715.2,286046999.7,P,1.0
1503703735.1,286046999.7,N,0.9
1503703736.0,286046999.7,N,0.8
1503703755.8,286047000.1,N,0.8
1503703775.6,286047002.8,Y,0.0
1503703795.5,286047000.3,P,0.1
1503703815.3,286047002.7,P,1.2
1503703835.1,286047000.1,N,1.1
1503703855.9,286047000.2,N,1.0
1503703875.7,286047002.8,N,1.2
1503703895.5,286047002.1,N,1.2
1503703915.4,286047002.6,N,1.2
1503703935.2,286047000.2,N,1.2
1503703955.0,286047002.6,N,1.2
1503703955.9,286047002.6,N,1.2
1503703975.8,286046999.9,N,1.2
1503703995.6,286047002.3,N,1.2
1503704015.4,286047002.0,N,1.2
1503704035.3,286047002.0,N,1.1
1503704055.1,286047002.6,N,1.1
1503704056.0,286047002.6,N,1.1
1503704075.8,286047002.1,N,1.1
1503704095.7,286047001.6,N,1.1
1503704115.5,286047002.0,N,1.0
1503704135.3,286047001.6,N,1.0
1503704155.2,286047002.0,N,1.0
1503704175.9,286047002.0,N,1.0
1503704195.7,286047004.4,Y,0.0
1503704215.6,286046999.9,P,0.9
1503704235.4,286047000.1,N,0.8
1503704255.2,286047002.3,N,1.0
1503704275.1,286047002.2,N,1.0
1503704276.0,286047002.2,N,1.0
1503704295.8,286047002.5,N,1.0
1503704315.6,286047002.8,N,1.0
1503704335.5,286047000.1,N,1.1
1503704355.3,286047000.1,N,1.1
1503704375.1,286047002.5,N,1.1
1503704395.9,286046999.7,N,1.2
1503704415.7,286047002.5,N,1.2
1503704435.5,286047002.7,N,1.2
1503704455.4,286047002.5,N,1.2
1503704475.2,286046999.8,N,1.2
1503704495.0,286047001.3,N,1.2
1503704495.9,286047001.3,N,1.1
1503704515.8,286047001.8,N,1.1
1503704535.6,286047001.5,N,1.1
1503704555.4,286047002.0,N,1.1
1503704575.3,286047001.4,N,1.0
1503704595.1,286047001.5,N,1.0
1503704615.8,286047001.6,N,1.0
1503704635.7,286047002.3,N,1.0
1503704655.5,286047002.5,N,1.0
1503704675.3,286047002.4,N,1.0
1503704695.2,286047002.0,N,1.0
1503704715.0,286047002.3,N,1.0
1503704715.9,286047002.3,N,0.9
1503704735.8,286047002.2,N,1.0
1503704755.6,286047002.8,N,0.9
1503704775.4,286047002.2,N,0.9
1503704795.3,286047001.6,N,0.9
1503704815.1,286047002.1,N,0.9
1503704816.0,286047002.1,N,0.9
1503704835.8,286047002.2,N,0.9
1503704855.7,286047002.0,N,0.8
1503704875.5,286047000.2,N,0.8
1503704895.3,286047002.8,Y,0.0
1503704915.2,286046998.1,P,1.8
1503704935.0,286046999.8,N,1.5
1503704935.9,286046999.8,N,1.3
1503704955.8,286047000.6,N,1.2
1503704975.6,286046999.7,N,1.1
1503704995.4,286047002.3,N,1.3
1503705015.3,286047002.8,N,1.5
1503705035.1,286047002.6,N,1.5
1503705036.0,286047002.6,N,1.5
1503705055.8,286047001.6,N,1.5
1503705075.7,286047002.4,N,1.5
1503705095.5,286047000.1,N,1.4
1503705115.3,286046999.9,N,1.4
1503705135.2,286046999.8,N,1.4
1503705155.9,286046999.7,N,1.4
1503705175.7,286047000.2,N,1.4
1503705195.6,286047000.5,N,1.3
1503705215.4,286046999.8,N,1.3
1503705235.2,286047000.3,N,1.3
1503705255.1,286047002.7,N,1.3
1503705256.0,286047002.7,N,1.3
1503705275.8,286047002.4,N,1.3
1503705295.6,286046999.7,N,1.3
1503705315.5,286047002.5,N,1.4
1503705335.3,286047002.8,N,1.4
1503705355.1,286047000.3,N,1.4
1503705375.9,286047000.2,N,1.3
1503705395.7,286047001.6,N,1.3
1503705415.5,286047002.5,N,1.3
1503705435.4,286047002.2,N,1.3
1503705455.2,286047002.8,N,1.2
1503705475.0,286047002.6,N,1.2
1503705476.0,286047002.6,N,1.2
1503705495.8,286047001.9,N,1.2
1503705515.6,286047001.3,N,1.2
1503705535.5,286047003.9,Y,0.0
1503705555.3,286046999.8,P,0.9
1503705575.1,286047000.8,N,0.7
1503705625.9,286047000.6,E,nan
